Date String (YYYY-MM-DD hh:mm:ss) UTC,Instrument flags,Ambient pressure (hPa),Sample flow (lpm),Bypass flow (lpm),Sample temperature (°C),Ambient temperature (°C),ASC tube jacket temperature (°C),LED temperature (°C),Box temperature (°C),Sample RH (%),Span deviation,Mass concentration (μg/m³),Mass concentration (μg/m³),Mass concentration (μg/m³)
DateTimeUTC,F1_M11,P_M11,Q1_M11,Q2_M11,T1_M11,T2_M11,T3_M11,T4_M11,T5_M11,U1_M11,ZSPAN_M11,X0_M11,X2_M11,X1_M11
2022-10-04 21:00:00,,0829.5,5.01,0.00,24.3,21.9,00.0,32.6,25.2,33.0,-002.7,0010.37,0007.40,0007.11
2022-10-04 21:01:00,,0829.5,5.00,0.00,24.3,21.8,00.0,32.6,25.2,33.2,-002.3,0010.15,0007.48,0007.20
2022-10-04 21:02:00,,0829.5,5.00,0.00,24.2,21.7,00.0,32.6,25.1,33.4,-002.1,0010.12,0007.51,0007.23
2022-10-04 21:03:00,,0829.5,5.00,0.00,24.2,21.6,00.0,32.6,25.1,33.6,-002.5,0010.28,0007.53,0007.24
2022-10-04 21:04:00,,0829.6,5.00,0.00,24.1,21.5,00.0,32.6,25.1,34.0,-002.4,0010.50,0007.56,0007.23
2022-10-04 21:05:00,,0829.5,5.00,0.00,24.1,21.6,00.0,32.6,25.1,33.5,-002.4,0010.92,0007.59,0007.24
2022-10-04 21:06:00,,0829.5,5.01,0.00,24.0,21.6,00.0,32.6,25.1,33.9,-002.2,0011.09,0007.60,0007.25
2022-10-04 21:07:00,,0829.5,5.00,0.00,24.0,21.7,00.0,32.6,25.1,33.7,-002.4,0011.72,0007.57,0007.22
2022-10-04 21:08:00,,0829.5,4.99,0.00,24.0,21.7,00.0,32.6,25.1,33.4,-002.3,0012.22,0007.55,0007.21
2022-10-04 21:09:00,,0829.5,5.00,0.00,24.0,21.7,00.0,32.6,25.1,33.9,-002.1,0012.36,0007.58,0007.23
2022-10-04 21:10:00,,0829.4,5.01,0.00,23.9,21.7,00.0,32.6,25.1,34.0,-002.1,0012.29,0007.57,0007.22
2022-10-04 21:11:00,,0829.4,4.99,0.00,23.9,21.7,00.0,32.5,25.1,34.2,-002.4,0012.23,0007.56,0007.20
2022-10-04 21:12:00,,0829.4,5.01,0.00,23.9,21.6,00.0,32.5,25.1,33.8,-002.4,0012.56,0007.57,0007.20
2022-10-04 21:13:00,,0829.5,4.99,0.00,23.8,21.6,00.0,32.5,25.1,33.7,-002.3,0013.16,0007.57,0007.20
2022-10-04 21:14:00,,0829.5,4.99,0.00,23.8,21.6,00.0,32.5,25.0,34.0,-002.1,0013.98,0007.54,0007.19
2022-10-04 21:15:00,,0829.5,5.00,0.00,23.8,21.5,00.0,32.5,25.0,33.9,-002.0,0013.72,0007.53,0007.21
2022-10-04 21:16:00,,0829.5,5.00,0.00,23.7,21.5,00.0,32.5,25.0,34.3,-002.0,0013.37,0007.53,0007.21
2022-10-04 21:17:00,,0829.4,4.99,0.00,23.7,21.5,00.0,32.4,25.0,34.6,-002.2,0013.34,0007.51,0007.20
2022-10-04 21:18:00,,0829.5,4.99,0.00,23.7,21.5,00.0,32.4,25.0,34.7,-002.3,0012.60,0007.53,0007.20
2022-10-04 21:19:00,,0829.4,5.01,0.00,23.8,21.5,00.0,32.4,25.0,34.1,-002.3,0012.16,0007.56,0007.24
2022-10-04 21:20:00,,0829.3,5.00,0.00,23.8,21.5,00.0,32.4,25.0,34.1,-002.4,0011.96,0007.57,0007.28
2022-10-04 21:21:00,,0829.3,4.99,0.00,23.8,21.2,00.0,32.4,25.0,34.1,-002.3,0012.05,0007.60,0007.33
2022-10-04 21:22:00,,0829.2,5.00,0.00,23.7,21.1,00.0,32.4,24.9,34.8,-002.4,0012.28,0007.62,0007.36
2022-10-04 21:23:00,,0829.2,5.00,0.00,23.8,21.3,00.0,32.4,25.0,35.1,-002.5,0012.03,0007.60,0007.34
2022-10-04 21:24:00,,0829.3,4.99,0.00,24.0,21.3,00.0,32.4,25.1,34.1,-002.4,0011.37,0007.60,0007.33
2022-10-04 21:25:00,,0829.2,5.01,0.00,24.0,21.3,00.0,32.3,25.1,33.9,-002.4,0010.64,0007.61,0007.32
2022-10-04 21:26:00,,0829.2,5.00,0.00,24.1,21.3,00.0,32.4,25.0,33.9,-002.3,0011.33,0007.63,0007.28
2022-10-04 21:27:00,,0829.4,5.00,0.00,24.1,21.4,00.0,32.4,25.0,33.5,-002.3,0011.88,0007.61,0007.25
2022-10-04 21:28:00,,0829.4,4.99,0.00,24.1,21.4,00.0,32.4,25.1,33.5,-002.1,0012.46,0007.63,0007.26
2022-10-04 21:29:00,,0829.5,5.02,0.00,24.1,21.5,00.0,32.4,25.0,33.8,-002.0,0012.53,0007.66,0007.28
2022-10-04 21:30:00,,0829.4,4.98,0.00,24.0,21.6,00.0,32.4,25.1,33.7,-001.9,0012.58,0007.65,0007.27
2022-10-04 21:31:00,,0829.4,5.01,0.00,24.0,21.6,00.0,32.4,25.1,33.7,-001.7,0013.17,0007.66,0007.26
2022-10-04 21:32:00,,0829.4,4.99,0.00,24.0,21.5,00.0,32.4,25.1,33.8,-001.9,0013.90,0007.68,0007.24
2022-10-04 21:33:00,,0829.3,5.01,0.00,24.0,21.7,00.0,32.5,25.1,33.8,-001.8,0013.71,0007.69,0007.25
2022-10-04 21:34:00,,0829.3,4.99,0.00,24.0,21.8,00.0,32.5,25.2,34.0,-001.8,0014.10,0007.68,0007.26
2022-10-04 21:35:00,,0829.4,4.99,0.00,24.0,21.9,00.0,32.5,25.2,34.5,-001.9,0014.14,0007.66,0007.25
2022-10-04 21:36:00,,0829.4,5.01,0.00,24.0,21.9,00.0,32.5,25.3,34.5,-002.0,0014.12,0007.64,0007.25
2022-10-04 21:37:00,,0829.4,4.99,0.00,24.0,22.0,00.0,32.5,25.2,34.7,-002.1,0013.53,0007.61,0007.27
2022-10-04 21:38:00,,0829.4,5.01,0.00,24.0,21.9,00.0,32.5,25.2,35.1,-002.4,0012.92,0007.57,0007.26
2022-10-04 21:39:00,,0829.5,4.99,0.00,24.1,22.0,00.0,32.5,25.3,34.9,-002.7,0012.07,0007.52,0007.25
2022-10-04 21:40:00,,0829.5,5.01,0.00,24.2,22.0,00.0,32.5,25.4,34.8,-002.8,0011.99,0007.49,0007.22
2022-10-04 21:41:00,,0829.5,5.00,0.00,24.2,22.0,00.0,32.5,25.4,34.2,-002.8,0011.97,0007.49,0007.21
2022-10-04 21:42:00,,0829.5,5.01,0.00,24.3,22.0,00.0,32.5,25.4,33.9,-002.9,0011.44,0007.49,0007.19
2022-10-04 21:43:00,,0829.5,4.99,0.00,24.3,22.0,00.0,32.6,25.5,34.1,-002.5,0010.71,0007.46,0007.18
2022-10-04 21:44:00,,0829.5,5.00,0.00,24.3,22.1,00.0,32.6,25.5,33.5,-002.3,0010.66,0007.47,0007.18
2022-10-04 21:45:00,,0829.5,5.01,0.00,24.3,22.2,00.0,32.6,25.5,33.8,-002.4,0010.30,0007.51,0007.21
2022-10-04 21:46:00,,0829.5,5.00,0.00,24.3,22.3,00.0,32.6,25.5,33.5,-002.6,0010.36,0007.59,0007.27
2022-10-04 21:47:00,,0829.5,5.00,0.00,24.3,22.2,00.0,32.7,25.5,33.5,-002.4,0010.44,0007.65,0007.32
2022-10-04 21:48:00,,0829.5,5.01,0.00,24.3,22.2,00.0,32.7,25.5,33.6,-002.0,0011.10,0007.72,0007.37
2022-10-04 21:49:00,,0829.5,4.99,0.00,24.3,22.0,00.0,32.7,25.5,33.7,-002.1,0011.17,0007.77,0007.41
2022-10-04 21:50:00,,0829.5,5.01,0.00,24.2,22.0,00.0,32.7,25.5,34.2,-001.9,0011.26,0007.81,0007.43
2022-10-04 21:51:00,,0829.5,5.00,0.00,24.2,22.1,00.0,32.7,25.5,33.3,-001.9,0011.31,0007.84,0007.47
2022-10-04 21:52:00,,0829.5,5.02,0.00,24.2,22.1,00.0,32.7,25.5,33.4,-002.2,0011.27,0007.85,0007.50
2022-10-04 21:53:00,,0829.5,4.99,0.00,24.2,22.0,00.0,32.7,25.5,33.7,-002.5,0011.39,0007.89,0007.51
2022-10-04 21:54:00,,0829.5,5.01,0.00,24.1,21.9,00.0,32.7,25.5,33.8,-002.8,0011.48,0007.91,0007.51
2022-10-04 21:55:00,,0829.5,4.99,0.00,24.1,21.8,00.0,32.7,25.5,33.6,-002.7,0011.46,0007.88,0007.49
2022-10-04 21:56:00,,0829.5,5.01,0.00,24.1,21.7,00.0,32.7,25.4,33.5,-002.4,0011.50,0007.90,0007.48
2022-10-04 21:57:00,,0829.5,5.01,0.00,24.0,21.5,00.0,32.7,25.3,33.8,-002.2,0011.39,0007.86,0007.45
2022-10-04 21:58:00,,0829.5,4.99,0.00,24.0,21.4,00.0,32.7,25.3,33.9,-002.4,0011.22,0007.79,0007.40
2022-10-04 21:59:00,,0829.5,5.00,0.00,23.9,21.4,00.0,32.6,25.3,34.2,-003.0,0010.51,0007.73,0007.35
